Temperature
18 18 18 18 18 18 18 18 18 18 19 19 19 19 19 19 19 19 19 19 19 19 19 19 19 19 19 19 19 19 19 19 18 19 19 19 19 18 18 18 18 18 19
18 18 18 18 18 18 18 18 18 18 18 18 18 18 18 18 18 18 18 19 19 19 19 19 19 19 18 18 18 18 18 18 18 18 18 18 18 18 18 18 18 18 18
18 18 18 18 18 18 18 18 18 18 18 18 18 18 18 18 18 18 18 18 18 18 18 18 18 18 18 18 18 18 18 18 18 18 18 18 18 18 18 18 18 18 18
18 18 18 18 18 18 18 18 18 18 18 18 18 18 18 18 18 18 18 18 18 18 18 18 18 18 18 18 18 18 18 18 18 18 18 17 17 18 18 18 18 18 18
18 17 18 18 18 18 18 18 17 17 17 18 18 18 18 18 18 18 18 18 18 18 18 18 18 18 18 18 18 18 18 18 18 18 17 17 17 18 18 18 18 18 18
18 17 18 18 18 18 18 17 17 17 17 17 17 17 17 17 17 18 18 18 18 18 18 18 18 18 18 18 18 18 18 18 18 17 17 17 17 18 18 18 18 18 18
18 18 17 18 18 18 17 17 17 17 17 17 17 17 17 17 17 17 17 17 17 17 17 18 18 18 18 18 18 18 18 18 17 17 17 17 17 18 18 18 18 18 18
18 18 17 17 17 17 17 17 17 16 16 16 16 17 17 17 17 17 17 17 17 17 17 17 17 17 17 17 18 18 18 18 17 17 17 17 17 18 18 18 18 18 18
18 17 17 17 17 17 16 16 16 16 16 16 16 16 16 16 17 17 17 17 17 17 17 17 17 17 17 17 17 17 18 18 17 17 17 17 18 18 18 18 18 18 18
17 17 17 17 16 16 16 16 16 16 16 16 16 16 16 16 16 16 16 17 17 17 17 17 17 17 17 17 17 17 18 18 17 17 17 17 18 18 18 18 18 18 18
17 17 17 16 16 16 15 15 15 15 15 15 15 15 15 15 15 16 16 16 16 17 17 17 17 17 17 17 17 17 18 17 17 17 17 17 18 18 18 18 18 18 18
18 17 17 16 16 16 15 15 15 15 14 14 14 15 15 15 15 15 15 16 16 16 16 17 17 17 17 17 17 17 17 17 17 17 17 17 18 18 17 18 18 18 18
18 17 17 16 16 15 15 15 15 14 14 14 14 14 15 15 15 15 15 15 15 16 16 16 16 16 16 16 16 17 17 17 17 17 17 18 18 18 17 17 18 18 17
18 17 16 16 16 15 15 15 14 14 14 14 14 14 14 14 14 15 15 15 15 15 16 16 16 16 16 16 16 17 17 17 17 17 17 18 18 17 17 18 18 18 18
17 17 16 15 15 15 14 14 14 14 14 14 14 14 14 14 14 14 15 15 15 15 15 15 16 16 16 16 16 16 17 17 17 17 17 17 18 18 17 17 18 17 18
17 17 16 15 15 15 15 14 14 14 14 14 14 14 14 14 14 14 14 14 14 15 15 15 15 16 16 16 16 16 16 17 17 17 17 17 17 17 17 17 17 18 18
18 17 16 15 15 14 14 14 14 14 14 14 13 13 14 14 14 14 14 14 14 14 14 15 15 15 15 16 16 16 16 16 16 17 17 17 17 17 17 17 17 17 17
17 17 16 15 14 14 14 14 14 14 13 13 13 13 13 13 13 13 14 14 14 14 14 14 15 15 15 16 16 16 16 16 16 16 17 17 17 17 17 17 17 17 17
17 16 16 15 14 14 14 13 13 13 13 13 13 13 13 13 13 13 13 13 14 14 14 14 14 15 15 15 15 16 16 16 16 16 17 17 17 17 17 17 17 17 17
17 16 16 15 14 14 13 13 13 13 13 13 13 12 12 13 13 13 13 13 13 14 14 14 14 14 15 15 15 15 16 16 16 16 16 17 17 17 17 17 17 17 17
16 16 15 15 14 14 13 13 13 13 13 13 12 12 12 12 12 13 13 13 13 13 13 13 14 14 14 14 15 15 16 16 16 16 16 16 17 16 17 17 17 17 17
16 16 16 15 14 14 13 13 13 12 13 12 12 12 12 12 12 12 12 13 13 13 13 13 13 14 14 14 15 15 16 16 16 16 16 16 16 16 17 17 17 17 17
16 16 15 15 14 13 13 13 12 12 12 13 12 12 12 12 12 12 12 12 12 13 13 13 13 13 14 14 14 15 15 16 16 15 16 16 16 16 16 16 17 17 17
17 16 15 15 14 13 13 13 13 12 13 12 12 12 12 12 12 12 12 12 12 12 12 13 13 13 13 14 14 14 14 15 15 15 15 15 16 16 16 16 16 16 17
17 16 15 14 14 13 13 13 12 13 12 12 12 12 12 12 12 12 12 12 12 12 12 12 12 13 13 13 13 14 14 14 15 15 15 15 15 15 16 16 16 16 16
16 16 15 14 14 13 13 13 12 12 12 12 12 12 12 12 12 12 11 11 12 12 12 12 12 12 12 13 13 13 13 14 14 14 15 15 15 15 15 15 16 16 16
Wind_Speed
5 6 8 5 5 5 5 4 4 4 4 3 3 3 3 3 2 3 2 2 2 1 1 1 1 1 2 2 2 2 2 2 2 2 2 2 2 3 3 4 3 5 8
6 7 8 5 5 4 3 3 2 2 2 2 2 2 2 2 2 3 3 3 3 2 2 1 1 1 1 1 1 1 1 1 1 1 1 3 3 2 3 2 2 4 6
7 7 8 6 5 4 3 2 1 1 1 2 2 2 3 3 4 4 5 5 4 4 3 3 3 2 1 1 0 0 1 1 1 1 4 4 4 4 2 2 2 4 5
8 7 7 7 5 4 3 3 3 3 3 3 3 4 4 4 5 6 6 7 6 6 5 5 4 4 3 2 1 1 1 1 1 4 6 2 2 6 2 3 3 4 5
8 7 8 6 5 5 4 3 3 3 5 5 5 5 5 6 6 7 8 8 8 8 7 7 6 6 5 3 3 3 2 3 3 8 4 2 2 3 2 3 4 4 5
7 7 8 6 6 5 4 3 3 3 4 5 5 6 6 6 7 7 8 9 9 9 8 8 7 7 7 5 4 4 3 4 7 5 3 3 2 2 3 3 3 4 5
7 6 7 7 6 5 4 4 4 4 4 5 5 5 6 7 8 8 9 9 9 9 8 8 8 8 8 7 6 5 4 4 7 5 4 4 1 0 3 4 4 5 5
6 5 6 7 6 6 6 5 5 5 5 5 5 5 6 6 7 8 8 9 9 8 8 9 9 9 9 7 7 6 5 7 7 6 5 4 0 2 4 4 4 5 6
5 4 3 3 4 4 4 5 6 6 6 6 6 6 6 5 5 6 7 7 7 7 7 8 9 9 9 8 7 6 5 5 8 6 6 3 1 3 4 5 5 6 6
4 2 2 3 3 4 3 4 5 6 6 6 6 6 6 6 6 6 7 6 7 7 7 8 9 9 9 8 7 7 6 7 9 7 6 2 1 4 4 4 5 6 6
2 1 1 2 4 4 5 4 4 3 3 5 4 3 6 6 6 6 6 5 6 6 7 8 10 10 8 8 8 7 8 8 6 6 5 2 2 4 4 5 5 6 6
2 1 2 3 4 5 5 5 5 5 4 5 6 6 6 5 5 6 3 5 6 6 7 7 8 10 8 7 8 9 7 8 6 6 4 3 3 5 5 6 6 6 6
1 1 2 3 4 5 5 5 5 5 4 5 5 5 5 5 5 5 4 4 5 5 6 5 7 7 7 6 7 7 6 6 5 5 3 4 3 5 5 6 6 7 7
1 1 1 3 4 5 6 5 5 5 5 5 5 6 5 4 5 4 4 4 3 3 3 4 4 5 6 7 8 7 7 6 6 5 3 4 4 5 6 7 7 7 7
2 1 1 3 5 5 5 5 5 5 5 5 5 6 6 5 5 5 4 3 4 3 3 4 5 5 5 6 6 7 7 7 7 6 4 5 5 5 6 7 7 7 8
3 1 1 2 4 5 5 5 5 5 4 5 5 6 6 6 5 5 5 4 3 3 3 4 5 5 5 5 6 6 6 6 7 7 6 6 7 6 6 6 6 7 8
3 2 1 1 3 5 5 5 5 4 5 4 5 6 6 6 6 5 5 4 4 3 3 3 4 4 5 5 6 6 5 6 7 7 6 5 6 9 8 7 7 8 8
3 2 1 1 3 4 4 5 4 4 4 4 5 6 7 7 7 5 5 5 4 4 3 3 3 4 4 4 4 4 4 4 7 6 6 6 5 6 9 9 8 9 9
4 2 1 1 3 3 4 3 3 3 3 4 5 6 7 8 8 6 5 5 5 4 3 3 2 3 3 3 4 4 4 4 5 6 6 6 5 5 6 9 9 9 10
5 3 1 0 2 3 3 3 2 2 3 3 4 5 7 7 8 7 5 6 6 4 3 3 2 2 2 2 3 3 4 4 5 5 5 4 4 5 6 6 8 10 12
6 4 2 1 0 2 3 3 3 2 3 3 4 6 6 7 8 7 6 6 6 4 4 3 2 2 1 1 2 3 3 4 4 4 4 4 4 4 6 6 7 6 9
7 6 4 2 0 2 2 3 2 3 3 3 3 3 5 6 7 7 7 6 6 5 5 4 2 2 1 0 1 2 3 3 3 3 3 4 5 4 5 6 6 6 6
8 6 4 2 1 0 1 2 2 1 2 1 2 3 5 6 6 7 7 7 6 5 5 5 4 2 1 0 1 2 1 2 1 2 2 2 3 3 4 5 6 6 7
9 7 5 4 2 1 1 1 2 3 3 3 3 3 3 4 5 6 6 6 6 6 5 5 5 3 3 1 0 1 1 1 1 1 2 2 1 2 2 3 4 5 6
9 7 6 5 4 3 1 1 3 2 2 2 3 2 3 3 4 5 5 5 6 5 6 6 5 5 3 3 2 1 1 1 2 2 1 1 1 1 2 2 3 3 4
9 8 7 6 5 4 3 3 2 2 2 2 2 3 2 2 2 4 4 4 5 5 6 6 5 5 4 3 3 2 2 1 1 2 2 1 1 1 1 1 2 2 2
Wind_Direction
144 144 126 147 142 135 131 130 132 133 139 146 149 156 161 168 177 181 182 186 182 173 160 138 125 118 110 87 73 71 73 81 86 93 99 103 101 108 110 127 173 127 108
131 132 123 134 127 119 113 114 123 142 168 175 182 194 204 221 229 225 223 227 225 218 218 219 210 189 152 129 83 53 48 50 43 75 196 189 156 128 131 138 314 97 123
125 124 129 120 115 106 93 86 72 279 254 244 242 240 240 248 255 252 248 246 245 241 236 237 243 241 231 230 253 339 351 347 333 263 253 234 160 145 153 155 154 134 139
115 112 105 104 98 92 75 48 18 346 322 300 287 279 271 267 266 263 261 256 251 249 243 240 246 249 242 238 255 282 298 306 292 263 245 241 208 129 173 187 182 170 162
108 104 94 86 83 78 67 48 22 349 324 310 299 294 287 280 276 270 265 260 255 251 247 244 244 247 247 243 249 263 275 281 270 262 274 279 262 127 203 207 200 188 177
105 96 89 75 68 60 45 24 8 338 315 307 300 295 290 286 280 277 274 268 260 254 251 249 250 249 247 246 248 257 268 275 261 255 265 260 243 150 229 221 212 200 189
103 93 87 71 62 53 39 14 357 343 330 315 306 302 301 300 289 281 277 273 268 259 252 250 248 252 251 247 248 252 261 271 265 266 260 258 263 144 243 227 218 208 199
99 92 89 86 65 48 33 16 0 345 331 323 315 308 305 306 301 290 283 278 273 267 260 252 247 250 252 248 244 245 255 273 249 253 252 251 121 264 250 226 216 212 207
104 92 71 66 73 73 42 14 358 349 340 333 327 316 314 312 303 293 291 286 279 271 265 256 248 246 249 249 245 241 243 266 271 253 252 242 121 267 255 224 215 216 214
120 100 66 39 16 357 354 38 1 349 342 333 323 318 307 282 263 260 267 269 273 267 258 251 245 243 244 244 242 240 237 244 248 248 248 215 130 267 254 230 221 219 214
142 106 51 12 8 351 337 4 337 329 332 302 284 289 283 283 282 261 262 278 269 260 252 245 233 226 230 235 237 236 231 242 240 251 247 81 272 267 252 234 224 218 212
160 81 15 356 1 351 347 340 331 326 336 321 326 321 307 306 298 290 245 252 260 254 244 232 228 214 216 228 224 223 229 236 244 242 220 125 258 262 245 234 224 219 213
144 82 13 360 1 352 350 341 338 331 330 319 332 324 312 305 296 290 285 253 247 238 239 216 217 213 209 222 233 227 233 241 244 247 206 140 242 253 240 230 225 219 214
177 87 16 358 354 355 351 345 331 334 332 333 336 330 327 322 310 310 295 296 281 257 245 242 233 218 215 218 230 233 226 232 237 247 212 159 233 242 236 229 220 214 211
174 171 25 350 351 355 353 335 338 346 339 347 344 337 336 325 321 315 301 299 288 279 255 246 240 230 227 225 228 230 232 234 233 238 218 175 222 237 237 226 218 213 208
185 159 82 350 355 346 343 343 351 347 346 344 351 347 342 336 329 322 310 300 297 284 277 257 243 238 232 226 229 231 234 240 238 236 239 196 198 218 228 222 218 216 207
174 158 104 347 347 345 348 348 343 343 347 350 353 346 349 346 335 328 322 313 306 292 272 264 253 243 231 223 227 234 231 242 245 237 236 234 206 196 209 216 217 217 211
173 164 133 331 341 349 348 340 346 352 355 355 358 356 355 354 348 343 335 328 320 309 292 272 258 244 233 226 226 233 231 233 246 244 241 230 223 212 193 197 211 213 211
177 189 179 6 343 349 346 337 340 352 359 359 4 6 360 359 354 354 347 338 331 320 309 294 271 263 241 233 230 229 236 233 241 240 239 236 221 222 211 180 199 209 209
180 195 195 118 329 347 337 330 342 348 355 3 4 10 3 357 360 357 351 352 346 338 330 311 294 270 262 245 240 226 232 230 238 235 239 239 238 222 221 208 198 201 205
185 197 204 242 347 341 341 335 341 353 347 356 6 8 359 0 360 4 356 -0 356 357 351 335 307 276 273 255 242 224 216 220 231 228 231 234 233 230 225 218 218 211 198
191 202 210 209 335 358 1 349 348 340 337 355 346 2 2 3 1 1 3 2 7 1 7 2 349 322 323 271 263 245 214 191 204 208 214 226 231 221 231 225 221 220 230
195 200 205 196 190 253 9 347 325 316 296 321 354 3 2 2 7 4 6 3 4 6 13 9 7 356 328 285 308 288 259 216 172 162 184 204 232 235 234 239 231 221 225
195 193 200 191 198 167 240 327 339 336 343 355 342 354 358 10 12 9 9 6 7 10 10 10 20 3 349 348 22 340 345 354 272 189 168 158 180 235 245 240 243 234 229
187 185 193 189 195 193 231 276 292 318 336 339 333 349 349 21 13 15 8 8 11 13 15 13 12 10 6 358 356 350 348 322 294 278 206 166 179 208 232 244 246 246 243
182 183 188 192 201 204 226 247 274 307 310 328 338 351 349 16 15 24 6 4 8 13 14 10 9 16 10 6 351 356 349 331 329 310 281 258 237 233 238 229 240 232 240
Height
1528 1529 1529 1530 1531 1532 1533 1533 1534 1534 1534 1534 1534 1534 1534 1534 1534 1534 1534 1534 1533 1533 1533 1533 1532 1532 1532 1532 1531 1531 1530 1530 1530 1529 1529 1529 1529 1528 1528 1528 1528 1529 1528
1529 1530 1530 1531 1532 1532 1533 1533 1534 1534 1534 1534 1534 1534 1534 1534 1534 1534 1534 1533 1533 1533 1533 1532 1532 1532 1532 1531 1531 1531 1531 1530 1530 1530 1530 1529 1529 1529 1529 1529 1529 1530 1529
1529 1530 1531 1531 1532 1532 1533 1533 1533 1533 1534 1533 1533 1533 1533 1533 1533 1533 1533 1533 1533 1532 1532 1532 1532 1532 1531 1531 1531 1531 1530 1530 1530 1530 1530 1531 1530 1529 1529 1529 1529 1530 1530
1530 1531 1531 1531 1532 1532 1532 1532 1532 1532 1532 1532 1532 1532 1532 1532 1532 1532 1531 1531 1531 1531 1531 1531 1531 1531 1531 1530 1530 1530 1530 1530 1530 1530 1531 1531 1531 1530 1529 1530 1530 1530 1531
1531 1532 1531 1531 1532 1531 1531 1531 1531 1531 1531 1530 1530 1530 1530 1530 1530 1530 1530 1530 1530 1530 1530 1530 1530 1530 1530 1530 1530 1530 1530 1530 1530 1530 1531 1530 1530 1529 1529 1530 1530 1530 1531
1532 1532 1532 1531 1531 1531 1530 1530 1530 1529 1529 1529 1528 1528 1528 1528 1528 1528 1528 1528 1528 1528 1528 1528 1529 1529 1529 1529 1529 1529 1529 1529 1529 1531 1530 1530 1530 1529 1529 1529 1530 1530 1531
1532 1532 1532 1531 1531 1530 1529 1529 1528 1527 1527 1527 1526 1526 1526 1525 1525 1525 1525 1525 1526 1526 1526 1526 1527 1527 1527 1528 1528 1528 1528 1528 1529 1530 1529 1529 1529 1528 1529 1529 1529 1530 1531
1532 1532 1532 1531 1530 1529 1528 1527 1526 1525 1525 1524 1524 1523 1523 1522 1522 1522 1522 1522 1523 1523 1523 1524 1525 1525 1526 1526 1526 1526 1526 1527 1529 1529 1529 1529 1528 1528 1528 1528 1529 1529 1530
1532 1532 1532 1531 1530 1528 1527 1526 1525 1524 1522 1522 1521 1520 1520 1519 1519 1519 1519 1519 1520 1520 1520 1521 1522 1523 1523 1524 1524 1525 1525 1525 1527 1528 1528 1528 1527 1527 1527 1528 1528 1529 1530
1532 1532 1531 1530 1529 1528 1527 1525 1523 1522 1521 1520 1519 1518 1518 1517 1517 1516 1516 1516 1516 1517 1517 1518 1519 1520 1521 1521 1522 1523 1523 1524 1525 1527 1527 1527 1526 1526 1527 1527 1527 1528 1529
1532 1532 1531 1530 1529 1527 1526 1524 1522 1520 1519 1518 1518 1516 1516 1516 1516 1514 1513 1513 1513 1513 1514 1515 1516 1517 1518 1519 1520 1521 1521 1523 1525 1525 1525 1525 1525 1525 1526 1526 1527 1527 1528
1533 1532 1531 1530 1528 1527 1525 1523 1521 1520 1518 1517 1517 1515 1515 1514 1513 1512 1511 1510 1510 1510 1511 1512 1513 1514 1515 1517 1518 1519 1520 1521 1523 1524 1524 1523 1524 1524 1525 1525 1526 1526 1527
1532 1531 1530 1529 1527 1526 1524 1522 1521 1519 1518 1517 1515 1514 1513 1513 1512 1511 1510 1509 1508 1508 1509 1509 1510 1511 1512 1514 1515 1517 1518 1520 1521 1522 1522 1521 1522 1523 1523 1524 1525 1526 1527
1531 1530 1529 1528 1527 1525 1523 1522 1520 1519 1518 1516 1515 1513 1512 1511 1510 1509 1508 1507 1507 1506 1506 1507 1508 1509 1510 1511 1512 1514 1516 1517 1518 1520 1520 1520 1521 1522 1522 1523 1524 1524 1526
1530 1529 1528 1527 1526 1524 1522 1521 1520 1518 1517 1516 1513 1512 1511 1510 1509 1508 1507 1505 1505 1505 1504 1505 1505 1506 1507 1508 1510 1511 1513 1514 1516 1517 1518 1518 1519 1520 1521 1522 1523 1523 1524
1529 1528 1527 1526 1525 1524 1523 1521 1520 1518 1516 1515 1513 1512 1510 1509 1508 1506 1505 1504 1504 1503 1503 1503 1503 1504 1505 1506 1507 1508 1510 1512 1514 1515 1516 1517 1517 1518 1519 1521 1522 1522 1524
1528 1528 1526 1525 1524 1523 1522 1520 1519 1517 1516 1515 1513 1512 1510 1508 1507 1505 1504 1503 1502 1502 1501 1501 1501 1502 1503 1504 1505 1506 1507 1509 1511 1513 1514 1515 1516 1517 1518 1519 1520 1522 1523
1527 1527 1526 1524 1523 1522 1521 1519 1518 1517 1516 1514 1513 1511 1510 1508 1506 1504 1503 1502 1501 1500 1500 1500 1500 1500 1501 1502 1503 1504 1505 1506 1508 1510 1512 1513 1514 1516 1517 1518 1519 1520 1522
1525 1525 1525 1524 1523 1521 1520 1518 1517 1517 1515 1514 1513 1511 1509 1507 1506 1504 1502 1500 1500 1499 1498 1499 1499 1499 1499 1499 1501 1501 1503 1504 1506 1507 1509 1511 1512 1513 1515 1516 1517 1519 1520
1523 1524 1524 1523 1522 1521 1519 1519 1517 1516 1516 1514 1513 1511 1508 1507 1505 1503 1502 1500 1499 1498 1497 1497 1497 1497 1498 1498 1499 1500 1501 1502 1503 1505 1506 1508 1510 1511 1513 1515 1516 1518 1519
1521 1522 1523 1522 1521 1520 1519 1519 1518 1517 1516 1514 1513 1510 1509 1507 1505 1503 1502 1500 1498 1498 1497 1496 1496 1497 1497 1497 1498 1499 1500 1500 1501 1502 1504 1505 1507 1509 1510 1512 1514 1516 1517
1520 1521 1522 1521 1521 1520 1518 1518 1517 1516 1515 1514 1512 1511 1509 1507 1505 1504 1502 1500 1499 1497 1497 1496 1495 1496 1496 1496 1497 1498 1499 1500 1499 1501 1501 1503 1505 1506 1508 1510 1512 1513 1515
1518 1519 1520 1520 1519 1519 1518 1517 1517 1516 1515 1514 1513 1511 1509 1507 1505 1504 1502 1501 1499 1498 1497 1496 1495 1495 1496 1496 1496 1497 1498 1498 1499 1499 1499 1501 1502 1504 1506 1508 1510 1511 1513
1516 1517 1518 1519 1519 1518 1517 1517 1517 1516 1516 1514 1513 1511 1510 1508 1506 1504 1503 1501 1500 1499 1498 1497 1496 1495 1495 1496 1496 1496 1497 1497 1499 1499 1500 1500 1500 1502 1503 1505 1507 1509 1510
1513 1515 1516 1517 1517 1517 1517 1516 1516 1516 1515 1514 1513 1512 1510 1509 1507 1505 1503 1502 1501 1500 1498 1497 1496 1495 1495 1495 1496 1496 1496 1497 1498 1498 1498 1499 1500 1501 1502 1503 1504 1506 1507
1511 1512 1514 1515 1516 1516 1516 1516 1516 1515 1515 1514 1513 1512 1511 1510 1508 1506 1505 1503 1502 1501 1499 1498 1496 1496 1495 1495 1495 1496 1496 1496 1497 1498 1498 1498 1499 1500 1500 1501 1502 1503 1504